Location: Newark
(11.5710°N, 104.9241°E)
Time: 10:36:30
(UTC+00:00)

Envisat - Visible Passes

Search period start: 22 January 2020 00:00
Search period end: 01 February 2020 00:00
Orbit: 764 x 766 km, 98.1° (Epoch: 21 January)

Date Brightness Start Highest point End Pass type
(mag) Time Alt. Az. Time Alt. Az. Time Alt. Az.
23 Jan 5.2 11:54:09 10° SSW 11:58:27 28° W 12:02:45 10° NW visible
23 Jan 5.6 22:40:18 10° NE 22:44:22 24° E 22:48:26 10° SSE visible
24 Jan 3.2 11:16:39 10° S 11:21:43 80° WSW 11:26:48 10° NNW visible
25 Jan 6.2 12:21:31 10° SW 12:23:55 13° W 12:26:20 10° WNW visible
26 Jan 4.7 11:42:30 10° SSW 11:47:10 38° W 11:51:50 10° NNW visible
26 Jan 6.1 22:29:41 10° ENE 22:33:04 18° E 22:36:28 10° SE visible
28 Jan 5.9 12:09:11 10° SW 12:12:38 18° W 12:16:05 10° WNW visible
28 Jan 4.8 22:53:53 10° NE 22:58:32 37° E 23:03:11 10° SSE visible
29 Jan 4.0 11:30:58 10° S 11:35:53 51° WSW 11:40:48 10° NNW visible
29 Jan 6.3 22:19:28 10° ENE 22:21:47 13° E 22:24:05 10° SE visible
31 Jan 5.5 11:57:14 10° SSW 12:01:20 25° W 12:05:26 10° NW visible
31 Jan 5.4 22:43:00 10° NE 22:47:15 27° E 22:51:31 10° SSE visible
